CGNBR EGHI-EGXC

Flight info

Callsign CGNBR
Flight time N/A
Altitude 2500
Route EGHI EGKB EGMC EGUW EGSA EGUP EGXC
Aircraft SPIT/L-V/N

Departure

Time N/A
Airport Southampton Airport (EGHI)

Arrival

Time 2026-05-05 01:14
Airport RAF Coningsby (EGXC)
Time Latitude Longitude Altitude Speed Heading
2026-05-05 00:25 51.81542 0.79788 1502 ft 246 kts 18°
2026-05-05 00:25 51.83188 0.80711 1502 ft 251 kts 17°
2026-05-05 00:25 51.84858 0.81606 1506 ft 253 kts 17°
2026-05-05 00:26 51.85426 0.81895 1507 ft 253 kts 15°
2026-05-05 00:26 51.86524 0.82290 1508 ft 255 kts
2026-05-05 00:26 51.88218 0.82717 1504 ft 254 kts
2026-05-05 00:26 51.89953 0.83255 1496 ft 253 kts
2026-05-05 00:27 51.91670 0.83866 1491 ft 252 kts 15°
2026-05-05 00:27 51.93323 0.84831 1498 ft 253 kts 20°
2026-05-05 00:27 51.94406 0.85539 1506 ft 253 kts 21°
2026-05-05 00:27 51.95095 0.85998 1508 ft 256 kts 21°
2026-05-05 00:28 51.96813 0.86953 1499 ft 254 kts 16°
2026-05-05 00:28 51.98505 0.87769 1492 ft 253 kts 15°
2026-05-05 00:28 52.00099 0.88502 1500 ft 254 kts 15°
2026-05-05 00:28 52.01797 0.89267 1493 ft 253 kts 14°
2026-05-05 00:29 52.02372 0.89523 1489 ft 253 kts 14°
2026-05-05 00:29 52.03555 0.90048 1498 ft 254 kts 14°
2026-05-05 00:29 52.05258 0.90802 1501 ft 253 kts 14°
2026-05-05 00:29 52.06678 0.91149 1485 ft 150 kts 348°
2026-05-05 00:30 52.07624 0.90551 967 ft 156 kts 332°
2026-05-05 00:30 52.08663 0.90338 598 ft 149 kts 19°
2026-05-05 00:30 52.09413 0.91245 673 ft 131 kts 39°
2026-05-05 00:30 52.10013 0.92122 551 ft 134 kts 40°
2026-05-05 00:31 52.10699 0.93109 500 ft 121 kts 30°
2026-05-05 00:31 52.11419 0.93716 470 ft 121 kts 22°
2026-05-05 00:31 52.12078 0.94386 296 ft 104 kts 46°
2026-05-05 00:31 52.12361 0.94889 284 ft 75 kts 51°
2026-05-05 00:32 52.12630 0.95422 281 ft 41 kts 51°
2026-05-05 00:32 52.12679 0.95422 281 ft 12 kts 233°
2026-05-05 00:32 52.12586 0.95550 283 ft 44 kts 140°
2026-05-05 00:32 52.12449 0.95838 283 ft 22 kts 80°
2026-05-05 00:33 52.12501 0.95884 283 ft 0 kts 341°
2026-05-05 00:40 52.12618 0.95900 283 ft 34 kts 16°
2026-05-05 00:40 52.12996 0.95834 291 ft 100 kts
2026-05-05 00:40 52.13900 0.96121 593 ft 170 kts 18°
2026-05-05 00:40 52.15242 0.96378 684 ft 216 kts 354°
2026-05-05 00:41 52.16789 0.96199 824 ft 234 kts 355°
2026-05-05 00:41 52.18442 0.95991 949 ft 241 kts 354°
2026-05-05 00:41 52.20121 0.95764 1073 ft 244 kts 354°
2026-05-05 00:41 52.21813 0.95530 1189 ft 245 kts 354°
2026-05-05 00:42 52.23516 0.95295 1318 ft 245 kts 354°
2026-05-05 00:42 52.25222 0.95067 1420 ft 247 kts 354°
2026-05-05 00:42 52.25612 0.95018 1434 ft 248 kts 354°
2026-05-05 00:42 52.26279 0.94939 1447 ft 248 kts 355°
2026-05-05 00:43 52.27743 0.94800 1480 ft 250 kts 358°
2026-05-05 00:43 52.29521 0.94929 1493 ft 252 kts
2026-05-05 00:43 52.30595 0.95078 1492 ft 255 kts
2026-05-05 00:43 52.32360 0.95354 1498 ft 255 kts
2026-05-05 00:44 52.34120 0.95634 1507 ft 255 kts
2026-05-05 00:44 52.35886 0.95894 1489 ft 254 kts
2026-05-05 00:44 52.37645 0.96115 1489 ft 253 kts
2026-05-05 00:44 52.39397 0.96200 1491 ft 252 kts 355°
2026-05-05 00:45 52.41141 0.95944 1497 ft 251 kts 353°
2026-05-05 00:45 52.42858 0.95621 1495 ft 251 kts 352°
2026-05-05 00:45 52.44507 0.95309 1500 ft 252 kts 352°
2026-05-05 00:45 52.46100 0.95158 1501 ft 253 kts 357°
2026-05-05 00:46 52.47688 0.95104 1499 ft 253 kts 358°
2026-05-05 00:46 52.48673 0.95085 1498 ft 254 kts 358°
2026-05-05 00:46 52.50328 0.95058 1503 ft 254 kts 358°
2026-05-05 00:46 52.52089 0.95009 1498 ft 252 kts 357°
2026-05-05 00:47 52.53826 0.94666 1501 ft 252 kts 349°
2026-05-05 00:47 52.55550 0.94153 1504 ft 252 kts 348°
2026-05-05 00:47 52.57273 0.93611 1510 ft 252 kts 348°
2026-05-05 00:47 52.58978 0.93106 1504 ft 252 kts 349°
2026-05-05 00:48 52.60385 0.92531 537 ft 163 kts 313°
2026-05-05 00:48 52.61078 0.91690 347 ft 110 kts 359°
2026-05-05 00:48 52.61776 0.92073 278 ft 118 kts 28°
2026-05-05 00:48 52.62438 0.92526 259 ft 91 kts
2026-05-05 00:49 52.62899 0.92740 213 ft 66 kts 22°
2026-05-05 00:49 52.63227 0.92920 215 ft 38 kts 16°
2026-05-05 00:49 52.63306 0.92953 210 ft 0 kts 207°
2026-05-05 00:49 52.63306 0.92952 210 ft 0 kts 207°
2026-05-05 00:51 52.63127 0.92886 214 ft 74 kts 199°
2026-05-05 00:51 52.62385 0.92313 345 ft 163 kts 224°
2026-05-05 00:51 52.62033 0.90451 884 ft 192 kts 274°
2026-05-05 00:52 52.62686 0.88433 1119 ft 223 kts 319°
2026-05-05 00:52 52.64214 0.87580 1289 ft 239 kts 358°
2026-05-05 00:52 52.65472 0.87723 1391 ft 214 kts
2026-05-05 00:52 52.66794 0.87735 1440 ft 229 kts 357°
2026-05-05 00:53 52.68405 0.87469 1466 ft 236 kts 349°
2026-05-05 00:53 52.70021 0.86883 1483 ft 240 kts 345°
2026-05-05 00:53 52.71632 0.86132 1497 ft 241 kts 342°
2026-05-05 00:53 52.73230 0.85293 1497 ft 241 kts 340°
2026-05-05 00:54 52.74820 0.84389 1498 ft 241 kts 339°
2026-05-05 00:54 52.76149 0.83517 1497 ft 241 kts 333°
2026-05-05 00:54 52.77628 0.82216 1507 ft 241 kts 329°
2026-05-05 00:54 52.79089 0.80825 1508 ft 242 kts 328°
2026-05-05 00:55 52.80750 0.80688 994 ft 258 kts 17°
2026-05-05 00:55 52.82182 0.82238 854 ft 235 kts 42°
2026-05-05 00:55 52.83021 0.83315 954 ft 214 kts 31°
2026-05-05 00:55 52.84205 0.83823 846 ft 140 kts 344°
2026-05-05 00:56 52.85095 0.83341 249 ft 147 kts 324°
2026-05-05 00:56 52.85372 0.81706 781 ft 170 kts 268°
2026-05-05 00:56 52.85620 0.79834 681 ft 131 kts 288°
2026-05-05 00:56 52.85491 0.78605 275 ft 107 kts 235°
2026-05-05 00:57 52.85127 0.77760 260 ft 88 kts 233°
2026-05-05 00:57 52.84770 0.76916 204 ft 87 kts 230°
2026-05-05 00:57 52.84488 0.76271 213 ft 43 kts 238°
2026-05-05 00:57 52.84440 0.76146 213 ft 4 kts 237°
2026-05-05 00:58 52.84429 0.76118 219 ft 2 kts 237°
2026-05-05 00:58 52.84428 0.76125 217 ft 10 kts 35°
2026-05-05 00:58 52.84679 0.76724 246 ft 112 kts 57°
2026-05-05 00:58 52.85340 0.77038 583 ft 159 kts 308°
2026-05-05 00:59 52.85735 0.74949 533 ft 207 kts 284°
2026-05-05 00:59 52.85874 0.72847 667 ft 225 kts 261°
2026-05-05 00:59 52.85354 0.71087 767 ft 214 kts 230°
2026-05-05 00:59 52.84296 0.69463 896 ft 203 kts 225°
2026-05-05 01:00 52.83356 0.67761 1016 ft 198 kts 230°
2026-05-05 01:00 52.82658 0.66249 1104 ft 149 kts 236°
2026-05-05 01:00 52.82140 0.65014 1193 ft 119 kts 237°
2026-05-05 01:00 52.81713 0.63919 1315 ft 108 kts 240°
2026-05-05 01:01 52.81352 0.62870 1420 ft 107 kts 242°
2026-05-05 01:01 52.80907 0.61466 1775 ft 159 kts 243°
2026-05-05 01:01 52.80374 0.59726 2340 ft 182 kts 244°
2026-05-05 01:01 52.79756 0.57639 2160 ft 227 kts 245°
2026-05-05 01:02 52.79094 0.55185 2248 ft 238 kts 250°
2026-05-05 01:02 52.78577 0.52543 2276 ft 245 kts 253°
2026-05-05 01:02 52.78100 0.49820 2289 ft 248 kts 254°
2026-05-05 01:02 52.77789 0.48037 2294 ft 250 kts 254°
2026-05-05 01:03 52.77297 0.45290 2295 ft 249 kts 256°
2026-05-05 01:03 52.77050 0.42463 2298 ft 250 kts 265°
2026-05-05 01:03 52.76993 0.39750 2235 ft 251 kts 270°
2026-05-05 01:03 52.77036 0.36769 2166 ft 251 kts 272°
2026-05-05 01:04 52.77124 0.33872 2089 ft 251 kts 273°
2026-05-05 01:04 52.77328 0.29109 1970 ft 250 kts 275°
2026-05-05 01:04 52.77531 0.25505 1878 ft 251 kts 276°
2026-05-05 01:05 52.77591 0.24749 1855 ft 252 kts 279°
2026-05-05 01:05 52.77957 0.21963 1779 ft 250 kts 284°
2026-05-05 01:05 52.78366 0.19339 1708 ft 244 kts 283°
2026-05-05 01:05 52.78751 0.16790 1630 ft 236 kts 282°
2026-05-05 01:06 52.79127 0.14178 1558 ft 232 kts 282°
2026-05-05 01:06 52.79487 0.11583 1485 ft 230 kts 282°
2026-05-05 01:06 52.79766 0.08991 1444 ft 229 kts 276°
2026-05-05 01:06 52.79889 0.06379 1426 ft 228 kts 273°
2026-05-05 01:07 52.80008 0.03778 1408 ft 227 kts 279°
2026-05-05 01:07 52.80495 0.02069 1401 ft 228 kts 310°
2026-05-05 01:07 52.81768 0.00543 1413 ft 229 kts 329°
2026-05-05 01:07 52.82943 -0.00513 1407 ft 230 kts 332°
2026-05-05 01:08 52.84377 -0.01689 1399 ft 229 kts 334°
2026-05-05 01:08 52.85756 -0.02760 1405 ft 229 kts 335°
2026-05-05 01:08 52.87063 -0.03745 1390 ft 228 kts 335°
2026-05-05 01:08 52.88599 -0.04792 1398 ft 229 kts 340°
2026-05-05 01:09 52.90122 -0.05554 1397 ft 229 kts 343°
2026-05-05 01:09 52.91658 -0.06250 1398 ft 229 kts 343°
2026-05-05 01:09 52.93198 -0.06933 1400 ft 229 kts 343°
2026-05-05 01:09 52.94526 -0.07525 1398 ft 230 kts 343°
2026-05-05 01:10 52.96068 -0.08223 1407 ft 229 kts 343°
2026-05-05 01:10 52.97611 -0.09073 1402 ft 240 kts 337°
2026-05-05 01:10 52.99167 -0.10181 1395 ft 246 kts 335°
2026-05-05 01:10 53.00127 -0.10903 1403 ft 248 kts 334°
2026-05-05 01:11 53.01314 -0.11813 1400 ft 251 kts 334°
2026-05-05 01:11 53.02856 -0.13127 1383 ft 248 kts 321°
2026-05-05 01:11 53.04002 -0.15238 1177 ft 250 kts 326°
2026-05-05 01:11 53.05728 -0.15072 532 ft 262 kts 25°
2026-05-05 01:12 53.07059 -0.13390 655 ft 242 kts 45°
2026-05-05 01:12 53.07569 -0.11478 637 ft 140 kts 71°
2026-05-05 01:12 53.08134 -0.10103 690 ft 161 kts 34°
2026-05-05 01:12 53.09173 -0.10005 1214 ft 171 kts 330°
2026-05-05 01:13 53.10047 -0.11028 964 ft 114 kts 282°
2026-05-05 01:13 53.09963 -0.12307 413 ft 121 kts 262°
2026-05-05 01:13 53.09834 -0.13727 218 ft 110 kts 257°
2026-05-05 01:13 53.09657 -0.14901 34 ft 90 kts 252°
2026-05-05 01:14 53.09505 -0.15719 28 ft 61 kts 252°
2026-05-05 01:14 53.09305 -0.16003 25 ft 27 kts 149°
2026-05-05 01:14 53.09297 -0.15795 25 ft 16 kts 68°
2026-05-05 01:14 53.09259 -0.15682 23 ft 14 kts 189°
2026-05-05 01:15 53.09174 -0.15746 23 ft 15 kts 219°
2026-05-05 01:15 53.09189 -0.15957 27 ft 28 kts 314°
2026-05-05 01:15 53.09354 -0.16107 25 ft 15 kts 14°
2026-05-05 01:15 53.09361 -0.16088 27 ft 0 kts 103°